Regional Weather Roundup
Issued by NWS

Home | Current Version | Previous Version | Graphics & Text | Print | Product List | Glossary On
Versions: 1 2 3 4 5 6 7 8 9 10 11 12 13 14 15 16 17 18 19 20 21 22 23 24 25 26 27 28 29 30 31 32 33 34 35 36 37 38 39 40 41 42 43 44 45 46 47 48 49 50
000
ASUS43 KFSD 031210
RWRSD

WEATHER ROUNDUP FOR SOUTH DAKOTA
NATIONAL WEATHER SERVICE SIOUX FALLS SD
700 AM CDT FRI JUL 03 2015

NOTE: "FAIR" INDICATES FEW OR NO CLOUDS BELOW 12,000 FEET WITH NO
SIGNIFICANT WEATHER AND/OR OBSTRUCTIONS TO VISIBILITY.


SDZ001>005-009-010-012>017-031300-
NORTHWEST AND NORTH CENTRAL SOUTH DAKOTA

CITY           SKY/WX    TMP DP  RH WIND       PRES   REMARKS
BUFFALO          N/A     59  56  89 E6        30.01R
FAITH            N/A     60  56  86 NW5       30.05R
MOBRIDGE       FOG       63  63 100 NW5       29.99R VSB 1
$$

SDZ012>016-024>037-041>051-057-063-072>074-031300-
SOUTHWEST AND SOUTH CENTRAL SOUTH DAKOTA

CITY           SKY/WX    TMP DP  RH WIND       PRES   REMARKS
RAPID CTY ARPT CLEAR     57  55  93 W5        30.09R
PIERRE         PTCLDY    62  61  96 CALM      30.00R FOG
CUSTER         CLEAR     55  50  83 NW6       30.20S HAZE
ELLSWORTH AFB  CLEAR     59  56  90 W6        30.08R
PHILIP         CLEAR     59  57  93 W5        30.04R FOG
PINE RIDGE     CLEAR     54  52  93 CALM      30.11R FOG
SPEARFISH      FAIR      57  54  88 S3        30.13S
WINNER         FAIR      62  59  90 CALM      30.03R FOG
$$

SDZ004>011-016>023-039-040-031300-
NORTHEAST SOUTH DAKOTA

CITY           SKY/WX    TMP DP  RH WIND       PRES   REMARKS
ABERDEEN       PTCLDY    61  59  93 S3        29.98S FOG
WATERTOWN      SUNNY     57  55  93 CALM      30.00S FOG
BROOKINGS      SUNNY     54  52  94 CALM      30.04R
SISSETON         N/A     66  61  84 W13       29.95R
$$

SDZ017-020-022-023-036>040-048>070-031300-
SOUTHEAST SOUTH DAKOTA

CITY           SKY/WX    TMP DP  RH WIND       PRES   REMARKS
SIOUX FALLS    FOG       53  52  96 CALM      30.02R VSB 1/4
HURON          FOG       58  58 100 CALM      30.00R VSB 1/2
CHAMBERLAIN    FOG       62  62 100 CALM      30.02R VSB<1/4
MITCHELL       FOG       62  61  96 CALM      30.02R VSB<1/4
YANKTON        MOCLDY    57  55  94 CALM      30.01R
$$

ABBREVIATIONS USED IN REMARKS
   TC - TEMPERATURE IN CELSIUS
  WCI - WIND CHILL INDEX
   HX - HEAT INDEX
  VSB - VISIBILITY




USA.gov is the U.S. government's official web portal to all federal, state and local government web resources and services.